Weather History for KLKR - January, 2013

Change the Weather History Date:

Wednesday, January 9, 2013

  Actual Average (KUZA) Record (KUZA)
Temperature  
Mean Temperature 52 °F -  
Max Temperature 68 °F 47 °F 73 °F (1949)
Min Temperature 35 °F 30 °F 4 °F (1970)
Degree Days  
Heating Degree Days 14    
Growing Degree Days 2 (Base 50)    
Moisture  
Dew Point 47 °F    
Average Humidity 88    
Maximum Humidity 100    
Minimum Humidity 49    
Precipitation  
Precipitation 0.00 in - - ()
Sea Level Pressure  
Sea Level Pressure 30.40 in    
Wind  
Wind Speed 0 mph (West)    
Max Wind Speed 6 mph    
Max Gust Speed -    
Visibility 8 miles    
Events      
Averages and records for this station are not official NWS values.
T = Trace of Precipitation, MM = Missing Value Source: NWS Daily Summary

Daily Weather History Graph

Daily Weather History Graph

Search for Another Location

Airport or City:

Trip Planner

Search our weather history database for the weather conditions in past years. The results will help you decide how hot, cold, wet, or windy it might be!

Date:

Astronomy

Jan. 09, 2013 Rise Set
Actual Time 7:31 AM EST 5:30 PM EST
Civil Twilight 7:03 AM EST 5:58 PM EST
Nautical Twilight 6:32 AM EST 6:29 PM EST
Astronomical Twilight 6:01 AM EST 6:59 PM EST
Moon 5:08 AM EST (1/9) 3:30 PM EST (1/9)
Length of Visible Light 10h 54m
Length of Day
9h 59m
Waning Crescent, 6% of the Moon is Illuminated
Jan 9
Waning Crescent
Jan 11
New
Jan 18
First Quarter
Jan 26
Full
Feb 3
Last Quarter

Hourly Weather History & Observations

Time (EST) Temp. Dew Point Humidity Pressure Visibility Wind Dir Wind Speed Gust Speed Precip Events Conditions
12:15 AM 46.4 °F 46.4 °F 100% 30.37 in 10.0 mi Calm Calm - N/A   Partly Cloudy
12:35 AM 46.4 °F 44.6 °F 93% 30.37 in 10.0 mi Calm Calm - N/A   Clear
1:35 AM 42.8 °F 42.8 °F 100% 30.37 in 10.0 mi Calm Calm - N/A   Clear
1:55 AM 41.0 °F 41.0 °F 100% 30.38 in 9.0 mi Calm Calm - N/A   Clear
2:15 AM 41.0 °F 41.0 °F 100% 30.38 in 6.0 mi Calm Calm - N/A   Clear
2:35 AM 41.0 °F 41.0 °F 100% 30.39 in 8.0 mi Calm Calm - N/A   Clear
2:55 AM 41.0 °F 41.0 °F 100% 30.39 in 5.0 mi Calm Calm - N/A   Clear
3:15 AM 41.0 °F 41.0 °F 100% 30.39 in 7.0 mi Calm Calm - N/A   Clear
3:35 AM 41.0 °F 41.0 °F 100% 30.39 in 10.0 mi Calm Calm - N/A   Clear
3:55 AM 41.0 °F 41.0 °F 100% 30.39 in 7.0 mi Calm Calm - N/A   Clear
4:15 AM 39.2 °F 39.2 °F 100% 30.39 in 3.0 mi Calm Calm - N/A   Clear
4:35 AM 39.2 °F 39.2 °F 100% 30.39 in 2.5 mi Calm Calm - N/A   Clear
4:55 AM 39.2 °F 39.2 °F 100% 30.39 in 4.0 mi Calm Calm - N/A   Clear
5:15 AM 37.4 °F 37.4 °F 100% 30.38 in 3.0 mi Calm Calm - N/A   Clear
5:35 AM 37.4 °F 37.4 °F 100% 30.39 in 3.0 mi Calm Calm - N/A   Clear
5:55 AM 37.4 °F 37.4 °F 100% 30.39 in 2.5 mi Calm Calm - N/A   Clear
6:15 AM 37.4 °F 37.4 °F 100% 30.40 in 3.0 mi Calm Calm - N/A   Clear
6:35 AM 35.6 °F 35.6 °F 100% 30.40 in 3.0 mi Calm Calm - N/A   Clear
6:55 AM 35.6 °F 35.6 °F 100% 30.40 in 4.0 mi Calm Calm - N/A   Clear
7:15 AM 35.6 °F 35.6 °F 100% 30.40 in 4.0 mi Calm Calm - N/A   Clear
7:35 AM 35.6 °F 35.6 °F 100% 30.40 in 3.0 mi Calm Calm - N/A   Clear
7:55 AM 35.6 °F 35.6 °F 100% 30.41 in 3.0 mi Calm Calm - N/A   Clear
8:15 AM 37.4 °F 37.4 °F 100% 30.43 in 5.0 mi Calm Calm - N/A   Clear
8:35 AM 37.4 °F 37.4 °F 100% 30.43 in 3.0 mi Calm Calm - N/A   Clear
8:55 AM 39.2 °F 39.2 °F 100% 30.44 in 4.0 mi Calm Calm - N/A   Clear
9:35 AM 46.4 °F 44.6 °F 93% 30.45 in 10.0 mi Calm Calm - N/A   Clear
9:55 AM 50.0 °F 44.6 °F 82% 30.45 in 10.0 mi Calm Calm - N/A   Clear
10:15 AM 53.6 °F 44.6 °F 72% 30.46 in 10.0 mi NE 4.6 mph - N/A   Clear
10:35 AM 57.2 °F 44.6 °F 63% 30.47 in 10.0 mi Calm Calm - N/A   Clear
10:55 AM 59.0 °F 46.4 °F 63% 30.47 in 10.0 mi WNW 3.5 mph - N/A   Clear
11:15 AM 60.8 °F 48.2 °F 63% 30.46 in 10.0 mi Calm Calm - N/A   Mostly Cloudy
11:35 AM 62.6 °F 46.4 °F 55% 30.45 in 10.0 mi Calm Calm - N/A   Mostly Cloudy
11:55 AM 64.4 °F 48.2 °F 56% 30.42 in 10.0 mi Calm Calm - N/A   Partly Cloudy
12:35 PM 66.2 °F 48.2 °F 52% 30.40 in 10.0 mi Calm Calm - N/A   Clear
1:15 PM 68.0 °F 48.2 °F 49% 30.39 in 10.0 mi WSW 4.6 mph - N/A   Clear
1:35 PM 68.0 °F 48.2 °F 49% 30.38 in 10.0 mi SW 4.6 mph - N/A   Clear
1:55 PM 66.2 °F 46.4 °F 49% 30.37 in 10.0 mi WSW 5.8 mph - N/A   Clear
2:15 PM 68.0 °F 48.2 °F 49% 30.37 in 10.0 mi West 3.5 mph - N/A   Clear
2:35 PM 68.0 °F 48.2 °F 49% 30.37 in 10.0 mi NW 3.5 mph - N/A   Clear
2:55 PM 68.0 °F 48.2 °F 49% 30.38 in 10.0 mi Calm Calm - N/A   Clear
3:15 PM 68.0 °F 50.0 °F 52% 30.37 in 10.0 mi Calm Calm - N/A   Clear
3:35 PM 68.0 °F 53.6 °F 60% 30.37 in 10.0 mi Calm Calm - N/A   Clear
3:55 PM 64.4 °F 57.2 °F 77% 30.38 in 10.0 mi Calm Calm - N/A   Clear
4:15 PM 62.6 °F 57.2 °F 82% 30.38 in 10.0 mi Calm Calm - N/A   Clear
4:35 PM 62.6 °F 57.2 °F 82% 30.38 in 10.0 mi Calm Calm - N/A   Clear
4:55 PM 59.0 °F 57.2 °F 94% 30.38 in 10.0 mi Calm Calm - N/A   Clear
5:15 PM 59.0 °F 57.2 °F 94% 30.38 in 10.0 mi Calm Calm - N/A   Clear
5:35 PM 59.0 °F 57.2 °F 94% 30.39 in 10.0 mi Calm Calm - N/A   Clear
5:55 PM 59.0 °F 57.2 °F 94% 30.39 in 10.0 mi Calm Calm - N/A   Clear
6:15 PM 57.2 °F 57.2 °F 100% 30.40 in 10.0 mi Calm Calm - N/A   Clear
6:55 PM 55.4 °F 55.4 °F 100% 30.41 in 10.0 mi Calm Calm - N/A   Clear
7:15 PM 55.4 °F 55.4 °F 100% 30.41 in 10.0 mi Calm Calm - N/A   Clear
7:35 PM 55.4 °F 55.4 °F 100% 30.40 in 10.0 mi Calm Calm - N/A   Clear
7:55 PM 53.6 °F 53.6 °F 100% 30.40 in 10.0 mi Calm Calm - N/A   Clear
8:15 PM 53.6 °F 53.6 °F 100% 30.39 in 10.0 mi Calm Calm - N/A   Clear
8:35 PM 53.6 °F 53.6 °F 100% 30.39 in 10.0 mi Calm Calm - N/A   Clear
8:55 PM 53.6 °F 53.6 °F 100% 30.39 in 10.0 mi Calm Calm - N/A   Clear
9:35 PM 53.6 °F 53.6 °F 100% 30.40 in 10.0 mi Calm Calm - N/A   Clear
9:55 PM 53.6 °F 53.6 °F 100% 30.41 in 10.0 mi Calm Calm - N/A   Clear
10:15 PM 53.6 °F 53.6 °F 100% 30.42 in 10.0 mi Calm Calm - N/A   Clear
10:55 PM 51.8 °F 51.8 °F 100% 30.43 in 10.0 mi Calm Calm - N/A   Clear
11:15 PM 50.0 °F 50.0 °F 100% 30.44 in 9.0 mi Calm Calm - N/A   Clear
11:35 PM 50.0 °F 50.0 °F 100% 30.44 in 9.0 mi Calm Calm - N/A   Clear